Miscellaneous Local Product
Issued by NWS Hastings, NE

Home | Current Version | Previous Version | Text Only | Print | Product List | Glossary Off
Versions: 1 2 3 4 5 6 7 8 9 10 11 12 13 14 15 16 17 18 19 20 21 22 23 24 25 26 27 28 29 30 31 32 33 34 35 36 37 38 39 40 41 42 43 44 45 46 47 48 49 50

000
AXUS43 KGID 181802
MISGRI

GID CWA HOURLY WEATHER ROUNDUP
NATIONAL WEATHER SERVICE HASTINGS NE
100 PM CDT SAT OCT 18 2014

NOTE: "FAIR" INDICATES FEW OR NO CLOUDS BELOW 12,000 FEET WITH NO
SIGNIFICANT WEATHER AND/OR OBSTRUCTIONS TO VISIBILITY.

...SOUTH CENTRAL NEBRASKA...

CITY           SKY/WX    TMP DP  RH WIND       PRES   REMARKS
GRAND ISLAND   CLOUDY    44  38  79 CALM      30.29S
HASTINGS       SUNNY     49  39  68 NE6       30.27F
KEARNEY        SUNNY     54  39  58 E3        30.27S
ORD            SUNNY     47  39  74 E8        30.24F
YORK           PTSUNNY   46  37  71 SE3       30.28F
AURORA         CLOUDY    42  37  84 CALM      30.28F
LEXINGTON      SUNNY     59  41  52 S8        30.24F
HOLDREGE       SUNNY     55  40  56 CALM      30.25F
HEBRON         CLOUDY    44  37  75 CALM      30.29F

...NEBRASKA PANHANDLE...

CITY           SKY/WX    TMP DP  RH WIND       PRES   REMARKS
CHADRON        LGT RAIN  64  41  42 S20       30.03F
ALLIANCE       SUNNY     60  40  47 S18G26    30.10F
SCOTTSBLUFF    SUNNY     65  43  44 SE8G16    30.08F
SIDNEY         SUNNY     62  42  47 S20       30.14F

...WESTERN AND NORTH CENTRAL NEBRASKA...

CITY           SKY/WX    TMP DP  RH WIND       PRES   REMARKS
VALENTINE      SUNNY     62  39  42 S18       30.14F
AINSWORTH      SUNNY     58  38  49 S13G20    30.17F
ONEILL         MOSUNNY   47  43  84 S9        30.23F
BROKEN BOW     SUNNY     57  41  55 S9        30.22F
IMPERIAL       SUNNY     60  40  47 S16       30.20F
NORTH PLATTE   SUNNY     58  39  49 S9        30.21F
MCCOOK         SUNNY     60  39  45 S10       30.24F

...EASTERN NEBRASKA...

CITY           SKY/WX    TMP DP  RH WIND       PRES   REMARKS
NORFOLK        SUNNY     51  38  60 CALM      30.25F
SO SIOUX CITY  PTSUNNY   52  40  63 VRB3      30.26F
TEKAMAH        PTSUNNY   52  39  61 NW5       30.27F
COLUMBUS       SUNNY     50  36  57 S3        30.28F
ALBION         MOSUNNY   45  36  70 CALM      30.26F
OMAHA EPPLEY   PTSUNNY   52  40  63 W5        30.28F
OFFUTT AFB     MOSUNNY   51  44  77 VRB1      30.26F
MILLARD        MOSUNNY   50  40  69 CALM      30.27F
LINCOLN        SUNNY     51  37  58 SW3       30.28F
NEBRASKA CITY  SUNNY     53  38  56 N5        30.26F
BEATRICE       SUNNY     51  39  65 NW3       30.27F
FALLS CITY     SUNNY     57  43  59 VRB6      30.25F

...NORTHERN KANSAS...

CITY           SKY/WX    TMP DP  RH WIND       PRES   REMARKS
GOODLAND       SUNNY     58  41  53 S22       30.22F
HILL CITY      SUNNY     59  39  47 S7        30.26F
NORTON         CLEAR     61  36  39 S9        30.24
PHILLIPSBURG   SUNNY     59  41  51 S5        30.27S
SMITH CENTER   SUNNY     57  39  51 CALM      30.27F
BELOIT         SUNNY     55  41  58 N7        30.27S
HAYS           SUNNY     57  39  51 CALM      30.27S
RUSSELL        SUNNY     56  41  57 CALM      30.25F
CONCORDIA      SUNNY     54  42  64 NW7       30.27F
SALINA         SUNNY     58  42  55 VRB5      30.27F
TOPEKA         SUNNY     58  44  60 CALM      30.26F



USA.gov is the U.S. government's official web portal to all federal, state and local government web resources and services.